This is the latest recevied weather packets stored in our database for station/object KD5FHA. If no packets are shown the sender has not sent any weather packets the latest 10 day(s).
| Time | Temp. | Humidity | Pressure | Rain* | Wind** | Luminosity | Snow |
|---|---|---|---|---|---|---|---|
| 1788622445 | 32.22° C | 57% | 1015.9 hPa | 0 mm | - | 78 W/m² | - |
| 1788622145 | 32.22° C | 58% | 1015.9 hPa | 0 mm | - | 61 W/m² | - |
| 1788621844 | 31.67° C | 60% | 1015.8 hPa | 0 mm | - | 60 W/m² | - |
| 1788621539 | 31.11° C | 62% | 1016 hPa | 0 mm | - | 59 W/m² | - |
| 1788621234 | 30.56° C | 62% | 1015.9 hPa | 0 mm | - | 58 W/m² | - |
| 1788620929 | 31.11° C | 62% | 1015.9 hPa | 0 mm | - | 57 W/m² | - |
| 1788620623 | 30.56° C | 64% | 1015.7 hPa | 0 mm | - | 55 W/m² | - |
| 1788620320 | 30.56° C | 63% | 1015.7 hPa | 0 mm | - | 54 W/m² | - |
| 1788620015 | 30° C | 66% | 1015.9 hPa | 0 mm | - | 99 W/m² | - |
| 1788619714 | 30.56° C | 64% | 1015.9 hPa | 0 mm | - | 86 W/m² | - |
| 1788619410 | 30° C | 65% | 1015.9 hPa | 0 mm | - | 52 W/m² | - |
| 1788619108 | 30° C | 67% | 1016 hPa | 0 mm | - | 52 W/m² | - |
| 1788618803 | 29.44° C | 69% | 1016.1 hPa | 0 mm | - | 51 W/m² | - |
| 1788618501 | 29.44° C | 70% | 1016 hPa | 0 mm | - | 50 W/m² | - |
| 1788618196 | 28.89° C | 71% | 1015.9 hPa | 0 mm | - | 52 W/m² | - |
| 1788617892 | 28.33° C | 72% | 1015.8 hPa | 0 mm | - | 48 W/m² | - |
| 1788617588 | 28.33° C | 72% | 1015.8 hPa | 0 mm | - | 95 W/m² | - |
| 1788617297 | 27.78° C | 74% | 1015.7 hPa | 0 mm | - | 68 W/m² | - |
| 1788616983 | 27.78° C | 75% | 1015.7 hPa | 0 mm | - | 45 W/m² | - |
| 1788616682 | 27.78° C | 75% | 1015.7 hPa | 0 mm | - | 44 W/m² | - |
| 1788616378 | 27.78° C | 76% | 1015.8 hPa | 0 mm | - | 43 W/m² | - |
| 1788616077 | 27.22° C | 77% | 1015.6 hPa | 0 mm | - | 42 W/m² | - |
| 1788615771 | 27.22° C | 78% | 1015.7 hPa | 0 mm | - | 41 W/m² | - |
| 1788615466 | 26.67° C | 78% | 1015.6 hPa | 0 mm | - | 41 W/m² | - |
| 1788615161 | 26.67° C | 79% | 1015.6 hPa | 0 mm | - | 39 W/m² | - |
* Rain latest hour (hover to see other rain measurements)
** Current wind speed in m/s (hover to see current wind gust speed)